Powrót do katalogu

NOAA 16 DEB

AktywnySSO
NORAD 41347·DEBRIS·🇺🇸 United States

Wystrzelony Sep 21, 2000 z Vandenberg Space Force Base

Loading…

Następne Przeloty (najbliższe 24 godziny)

TLE

ŚwieżeSource: Space-Track

Epoka: Sep 14, 2026, 11:52 UTC

1 41347U 00055HQ  26257.49482393  .00003512  00000-0  12221-2 0  9994
2 41347  98.6985 335.9445 0019742 100.3085 260.0327 14.35965935550043

Śledź NOAA 16 DEB w czasie rzeczywistym z AllMySat

Download on the App Store